Regional Weather Roundup
Issued by NWS Sioux Falls, SD

Home | Current Version | Previous Version | Graphics & Text | Print | Product List | Glossary Off
Versions: 1 2 3 4 5 6 7 8 9 10 11 12 13 14 15 16 17 18 19 20 21 22 23 24 25 26 27 28 29 30 31 32 33 34 35 36 37 38 39 40 41 42 43 44 45 46 47 48 49 50

251
ASUS43 KFSD 270802
RWRFSD

WEATHER ROUNDUP FOR SE SOUTH DAKOTA/SW MINNESOTA/NW IOWA
NATIONAL WEATHER SERVICE SIOUX FALLS SD
300 AM CDT THU APR 27 2017

NOTE: "FAIR" INDICATES FEW OR NO CLOUDS BELOW 12,000 FEET WITH NO
SIGNIFICANT WEATHER AND OR OBSTRUCTIONS TO VISIBILITY.


SDZ038>040-050-052>070-270900-
SOUTHEAST SOUTH DAKOTA

CITY           SKY/WX    TMP DP  RH WIND       PRES   REMARKS
BROOKINGS      CLOUDY    28  24  85 N13G22    29.64S WCI  17
CHAMBERLAIN    CLOUDY    32  30  92 W3        29.73S
HURON          CLOUDY    30  24  78 N10       29.70F WCI  21
MADISON        CLOUDY    28  28 100 NW15      29.65S WCI  17
MITCHELL       CLOUDY    32  27  81 NW12      29.70F WCI  23
SIOUX FALLS    CLOUDY    31  25  78 NW12      29.65F WCI  22
WINNER         FAIR      25  21  85 SW5       29.71F WCI  19
YANKTON        PTCLDY    30  25  80 NW9       29.68S WCI  22
$$

MNZ071-072-080-081-089-090-097-098-270900-
SOUTHWEST MINNESOTA

CITY           SKY/WX    TMP DP  RH WIND       PRES   REMARKS
FAIRMONT       CLOUDY    31  29  92 NW17      29.58F WCI  19
JACKSON        CLOUDY    30  28  93 NW15G22   29.59S WCI  19
LUVERNE        CLOUDY    30  25  80 NW13      29.64F WCI  20
MARSHALL       MIX PCPN  29  28  96 NW21      29.62F FOG     WCI  16
MONTEVIDEO     CLOUDY    30  30 100 N9        29.62F WCI  22
PIPESTONE      CLOUDY    28  21  74 NW14G22   29.61F WCI  17
REDWOOD FALLS  CLOUDY    31  28  89 NW12      29.59F WCI  22
TRACY          CLOUDY    30  29  96 NW13      29.61F WCI  20
WINDOM         PTCLDY    30  28  93 NW13      29.58F WCI  20
WORTHINGTON    CLOUDY    28  26  92 NW17G23   29.60F WCI  16
$$

IAZ001>003-012>014-020>022-031-032-NEZ013-014-SDZ071-270900-
NORTHWEST IOWA

CITY           SKY/WX    TMP DP  RH WIND       PRES   REMARKS
ESTHERVILLE    CLOUDY    30  28  92 NW20      29.58F WCI  17
SIOUX CITY     CLOUDY    34  28  79 NW15      29.65F WCI  24
SPENCER        CLOUDY    31  27  85 NW15      29.60F WCI  20
STORM LAKE     CLOUDY    32  28  86 NW20      29.60F WCI  20
$$

ABBREVIATIONS USED IN REMARKS
   TC - TEMPERATURE IN CELSIUS
  WCI - WIND CHILL INDEX
   HX - HEAT INDEX
  VSB - VISIBILITY





USA.gov is the U.S. government's official web portal to all federal, state and local government web resources and services.